Date,TemperatureHighF,TemperatureAvgF,TemperatureLowF,DewpointHighF,DewpointAvgF,DewpointLowF,HumidityHigh,HumidityAvg,HumidityLow,PressureMaxIn,PressureMinIn,WindSpeedMaxMPH,WindSpeedAvgMPH,GustSpeedMaxMPH,PrecipitationSumIn
2013-1-1,59.9,56.0,53.6,51.8,49.8,48.0,87,79,68,29.98,29.82,7,0,8,0.00
2013-1-2,67.5,57.8,50.4,53.1,49.0,46.0,92,74,49,29.92,29.78,14,2,15,0.04
2013-1-3,74.5,56.1,46.4,52.7,47.2,44.2,93,75,37,30.04,29.85,13,2,17,0.07
2013-1-4,66.9,53.0,46.8,52.0,47.8,44.4,93,84,56,30.11,29.98,10,1,11,0.00
2013-1-5,72.9,55.8,45.0,52.0,46.8,42.8,93,74,45,30.17,29.96,7,0,9,0.00
2013-1-6,75.0,55.6,42.4,51.8,46.1,40.3,92,74,37,30.09,29.86,20,1,21,0.00
2013-1-7,76.5,58.2,47.8,50.7,46.2,41.5,89,68,32,30.04,29.80,15,1,20,0.00
2013-1-8,67.3,55.1,45.3,55.9,48.3,42.6,92,79,54,29.89,29.74,18,2,25,0.06
2013-1-9,74.8,60.0,50.4,53.1,48.2,44.2,91,68,38,29.92,29.81,20,2,20,0.00
2013-1-10,77.7,58.9,43.0,49.6,42.1,36.0,92,59,24,30.02,29.89,10,1,14,0.00
2013-1-11,66.0,48.1,37.0,41.0,37.2,32.9,90,68,39,30.04,29.88,0,0,0,0.00
2013-1-12,77.4,59.6,40.1,50.2,41.8,33.4,82,55,30,29.98,29.77,13,1,16,0.00
2013-1-13,77.7,61.0,42.3,48.9,42.8,37.6,89,55,26,29.89,29.74,13,1,14,0.00
2013-1-14,76.8,60.5,43.0,48.6,43.2,37.9,87,56,26,29.91,29.77,14,2,14,0.00
2013-1-15,79.2,61.7,47.8,46.6,41.4,38.3,78,50,24,29.90,29.72,13,2,16,0.00
2013-1-16,74.7,58.9,49.3,46.2,40.9,27.3,73,52,34,30.02,29.75,18,2,18,0.00
2013-1-17,56.7,46.8,41.0,38.7,33.4,23.0,77,60,48,30.33,30.01,17,3,19,0.00
2013-1-18,64.9,47.1,34.2,32.4,25.4,20.8,62,44,28,30.38,30.14,14,1,14,0.00
2013-1-19,73.0,51.3,32.9,38.8,30.2,23.5,71,47,28,30.29,30.03,11,1,13,0.00
2013-1-20,69.3,54.0,39.7,31.5,28.0,21.9,62,39,22,30.14,29.93,11,1,12,0.00
2013-1-21,69.1,54.8,46.4,43.0,34.6,23.2,69,47,35,30.11,29.94,8,1,9,0.00
2013-1-22,72.7,52.7,33.6,42.6,38.5,29.5,88,62,32,30.18,29.97,16,2,16,0.00
2013-1-23,69.1,53.7,41.9,48.2,44.0,39.4,92,72,44,30.23,30.07,10,1,13,0.00
2013-1-24,72.7,52.5,37.2,48.4,40.4,34.9,93,69,30,30.29,30.08,15,2,16,0.00
2013-1-25,75.7,54.1,34.9,50.0,35.3,23.9,92,59,17,30.22,29.98,11,1,14,0.01
2013-1-26,78.1,55.9,35.6,40.1,34.4,27.9,89,52,18,30.11,29.90,10,1,10,0.00
2013-1-27,78.6,56.6,35.1,41.2,35.2,30.6,85,49,23,30.09,29.90,10,1,17,0.00
2013-1-28,75.2,58.1,37.6,49.6,40.8,30.0,79,54,33,30.06,29.89,12,1,15,0.00
2013-1-29,75.4,61.7,51.6,48.2,40.6,32.7,77,49,25,29.97,29.80,16,2,23,0.00
2013-1-30,78.3,59.9,43.3,37.4,27.2,10.9,65,35,9,29.97,29.80,9,0,15,0.00
2013-1-31,79.0,54.2,33.6,41.5,35.4,24.4,90,55,22,30.09,29.91,9,1,10,0.00